Weather History for Marshalltown, IA

Change the Weather History Date:

Wednesday, March 19, 2014

  Actual Average Record
Temperature  
Mean Temperature 34 °F 38 °F  
Max Temperature 38 °F 48 °F 81 °F (2012)
Min Temperature 30 °F 28 °F 12 °F (2013)
Degree Days  
Heating Degree Days 31 27  
Month to date heating degree days 733 603  
Since 1 July heating degree days 6848 6006  
Cooling Degree Days 0 0  
Month to date cooling degree days 0 0  
Year to date cooling degree days 0 0  
Moisture  
Dew Point 31 °F    
Average Humidity 85    
Maximum Humidity 100    
Minimum Humidity 70    
Precipitation  
Precipitation T in 0.07 in 0.16 in (2002)
Month to date precipitation 0.12 1.05  
Sea Level Pressure  
Sea Level Pressure 29.83 in    
Wind  
Wind Speed 16 mph (NW)    
Max Wind Speed 29 mph    
Max Gust Speed 36 mph    
Visibility 6 miles    
Events Rain , Snow    
T = Trace of Precipitation, MM = Missing Value Source: NWS Daily Summary

Daily Weather History Graph

Daily Weather History Graph

Search for Another Location

Airport:

Trip Planner

Search our weather history database for the weather conditions in past years. The results will help you decide how hot, cold, wet, or windy it might be!

Date:

Astronomy

Mar. 19, 2014 Rise Set
Actual Time 7:16 AM CDT 7:22 PM CDT
Civil Twilight 6:48 AM CDT 7:50 PM CDT
Nautical Twilight 6:16 AM CDT 8:23 PM CDT
Astronomical Twilight 5:42 AM CDT 8:56 PM CDT
Moon 10:45 PM CDT (3/19) 8:39 AM CDT (3/19)
Length of Visible Light 13h 01m
Length of Day
12h 06m
Waning Gibbous, 91% of the Moon is Illuminated
Mar 19
Waning Gibbous
Mar 23
Last Quarter
Mar 30
New
Apr 7
First Quarter
Apr 15
Full

Hourly Weather History & Observations

Time (CDT) Temp. Windchill Dew Point Humidity Pressure Visibility Wind Dir Wind Speed Gust Speed Precip Events Conditions
12:15 AM 37.9 °F 30.9 °F 37.0 °F 97% 29.61 in 3.0 mi NNE 10.4 mph - 0.00 in Rain Light Rain
12:29 AM 37.9 °F 30.9 °F 37.0 °F 97% 29.60 in 2.5 mi NNE 10.4 mph - 0.00 in   Overcast
12:51 AM 37.4 °F 30.8 °F 37.4 °F 100% 29.60 in 2.5 mi NNE 9.2 mph - 0.00 in   Overcast
12:53 AM 37.9 °F 31.5 °F 37.0 °F 97% 29.62 in 2.5 mi NNE 9.2 mph - 0.00 in   Overcast
1:01 AM 37.9 °F 32.1 °F 37.0 °F 97% 29.60 in 3.0 mi North 8.1 mph - N/A   Overcast
1:05 AM 37.9 °F 30.9 °F 37.0 °F 97% 29.61 in 2.5 mi NW 10.4 mph - N/A   Overcast
1:20 AM 37.0 °F 28.1 °F 37.0 °F 100% 29.61 in 1.8 mi NW 15.0 mph - N/A   Overcast
1:53 AM 36.0 °F 26.7 °F 36.0 °F 100% 29.64 in 2.0 mi NNW 15.0 mph - N/A   Overcast
2:15 AM 36.0 °F 26.3 °F 35.1 °F 97% 29.63 in 3.0 mi NNW 16.1 mph - N/A   Overcast
2:23 AM 36.0 °F 26.0 °F 35.1 °F 97% 29.63 in 3.0 mi NNW 17.3 mph - N/A   Overcast
2:53 AM 35.1 °F 24.5 °F 34.0 °F 96% 29.65 in 4.0 mi NNW 18.4 mph - N/A   Overcast
3:53 AM 34.0 °F 22.7 °F 33.1 °F 96% 29.67 in 3.0 mi NNW 19.6 mph - N/A   Overcast
4:28 AM 34.0 °F 22.7 °F 32.0 °F 92% 29.67 in 2.5 mi NNW 19.6 mph - 0.00 in Snow Light Snow
4:42 AM 33.1 °F 21.2 °F 32.0 °F 96% 29.68 in 1.8 mi NNW 20.7 mph 27.6 mph 0.00 in Snow Light Snow
4:53 AM 33.1 °F 22.2 °F 32.0 °F 96% 29.70 in 1.8 mi NNW 17.3 mph - 0.00 in Snow Light Snow
5:48 AM 32.0 °F 19.5 °F 30.2 °F 93% 29.73 in 2.5 mi NW 21.9 mph - 0.00 in Snow Light Snow
5:53 AM 32.0 °F 19.2 °F 30.0 °F 92% 29.76 in 3.0 mi NW 23.0 mph - 0.00 in Snow Light Snow
6:07 AM 32.0 °F 19.2 °F 30.0 °F 92% 29.75 in 6.0 mi NNW 23.0 mph 31.1 mph 0.00 in   Overcast
6:27 AM 32.0 °F 20.1 °F 30.0 °F 92% 29.76 in 6.0 mi NW 19.6 mph 28.8 mph 0.00 in   Overcast
6:37 AM 32.0 °F 19.8 °F 30.0 °F 92% 29.77 in 6.0 mi NW 20.7 mph - 0.00 in   Overcast
6:53 AM 30.9 °F 18.1 °F 28.9 °F 92% 29.80 in 7.0 mi NW 21.9 mph 32.2 mph 0.00 in   Overcast
7:53 AM 30.9 °F 17.2 °F 28.0 °F 89% 29.84 in 4.0 mi NW 25.3 mph 31.1 mph N/A   Overcast
8:53 AM 30.0 °F 16.0 °F 27.0 °F 88% 29.87 in 6.0 mi NNW 25.3 mph 33.4 mph N/A   Overcast
9:53 AM 30.9 °F 17.8 °F 26.1 °F 82% 29.91 in 8.0 mi NNW 23.0 mph 34.5 mph N/A   Overcast
10:53 AM 33.1 °F 21.2 °F 28.0 °F 82% 29.94 in 7.0 mi NW 20.7 mph 27.6 mph N/A   Overcast
11:53 AM 34.0 °F 22.1 °F 28.0 °F 79% 29.97 in 8.0 mi NW 21.9 mph 31.1 mph N/A   Overcast
12:53 PM 34.0 °F 23.0 °F 28.0 °F 79% 29.99 in 9.0 mi WNW 18.4 mph - N/A   Overcast
1:53 PM 35.1 °F 23.5 °F 27.0 °F 72% 30.00 in 10.0 mi NW 21.9 mph 32.2 mph N/A   Overcast
2:51 PM 35.6 °F 24.5 °F 26.6 °F 70% 29.98 in 10.0 mi NW 20.7 mph - N/A   Overcast
2:53 PM 35.1 °F 24.8 °F 28.0 °F 76% 30.01 in 10.0 mi NW 17.3 mph - N/A   Overcast
3:20 PM 35.1 °F 23.8 °F 28.0 °F 76% 29.99 in 10.0 mi NW 20.7 mph - N/A   Overcast
3:43 PM 36.0 °F 26.0 °F 28.0 °F 73% 29.99 in 10.0 mi WNW 17.3 mph 24.2 mph N/A   Overcast
3:53 PM 36.0 °F 26.0 °F 28.0 °F 73% 30.02 in 10.0 mi WNW 17.3 mph - N/A   Overcast
4:53 PM 37.0 °F 28.1 °F 28.0 °F 70% 30.03 in 10.0 mi WNW 15.0 mph - N/A   Overcast
5:53 PM 37.0 °F 29.3 °F 28.9 °F 73% 30.04 in 10.0 mi WNW 11.5 mph - N/A   Overcast
6:53 PM 37.0 °F 31.6 °F 28.9 °F 73% 30.04 in 10.0 mi West 6.9 mph - N/A   Partly Cloudy
7:53 PM 32.0 °F 25.6 °F 27.0 °F 82% 30.04 in 10.0 mi SW 6.9 mph - N/A   Clear
8:53 PM 30.0 °F 25.2 °F 27.0 °F 88% 30.04 in 10.0 mi SW 4.6 mph - N/A   Clear
9:53 PM 30.9 °F 24.3 °F 28.0 °F 89% 30.04 in 10.0 mi SW 6.9 mph - N/A   Clear
10:53 PM 30.0 °F 25.2 °F 27.0 °F 88% 30.04 in 10.0 mi SW 4.6 mph - N/A   Scattered Clouds
11:53 PM 30.9 °F 25.2 °F 27.0 °F 85% 30.03 in 10.0 mi SW 5.8 mph - N/A   Scattered Clouds